Jackson, MS

8:10 PM CST on February 06, 2016 (GMT -0600)
Hawkins

Weather History for KHKS - May, 2013

Change the Weather History Date:

Tuesday, May 21, 2013

  Actual Average (KJAN) Record (KJAN)
Temperature  
Mean Temperature 81 °F 74 °F  
Max Temperature 90 °F 84 °F 97 °F (1902)
Min Temperature 73 °F 63 °F 45 °F (1981)
Degree Days  
Heating Degree Days 0 0  
Month to date heating degree days 10  
Since 1 July heating degree days 2389  
Cooling Degree Days 16 9  
Month to date cooling degree days 138  
Year to date cooling degree days 256  
Growing Degree Days 31 (Base 50)    
Moisture  
Dew Point 69 °F    
Average Humidity 72    
Maximum Humidity 94    
Minimum Humidity 49    
Precipitation  
Precipitation 0.00 in 0.14 in 3.07 in (1967)
Month to date precipitation 2.96  
Year to date precipitation 22.69  
Sea Level Pressure  
Sea Level Pressure 29.91 in    
Wind  
Wind Speed 9 mph (South)    
Max Wind Speed 18 mph    
Max Gust Speed 26 mph    
Visibility 10 miles    
Events Thunderstorm    
T = Trace of Precipitation, MM = Missing Value Source: NWS Daily Summary

Daily Weather History Graph

Daily Weather History Graph

Search for Another Location

Airport or City:

Trip Planner

Search our weather history database for the weather conditions in past years. The results will help you decide how hot, cold, wet, or windy it might be!

Date:

Astronomy

May. 21, 2013 Rise Set
Actual Time 5:59 AM CDT 7:56 PM CDT
Civil Twilight 5:31 AM CDT 8:23 PM CDT
Nautical Twilight 4:58 AM CDT 8:56 PM CDT
Astronomical Twilight 4:23 AM CDT 9:32 PM CDT
Moon 4:21 PM CDT (5/21) 3:13 AM CDT (5/21)
Length of Visible Light 14h 51m
Length of Day
13h 57m
Waxing Gibbous, 84% of the Moon is Illuminated
May 21
Waxing Gibbous
May 24
Full
May 31
Last Quarter
Jun 8
New
Jun 16
First Quarter

Hourly Weather History & Observations

Time (CDT) Temp. Heat Index Dew Point Humidity Pressure Visibility Wind Dir Wind Speed Gust Speed Precip Events Conditions
12:31 AM 77.0 °F - 71.6 °F 83% 29.96 in 10.0 mi South 10.4 mph - N/A   Mostly Cloudy
12:53 AM 77.0 °F - 72.0 °F 84% 29.93 in 10.0 mi South 11.5 mph 18.4 mph N/A   Mostly Cloudy
1:53 AM 77.0 °F - 72.0 °F 84% 29.94 in 10.0 mi South 11.5 mph - N/A   Overcast
2:53 AM 77.0 °F - 71.1 °F 82% 29.93 in 10.0 mi South 8.1 mph - N/A   Overcast
3:31 AM 75.2 °F - 71.6 °F 89% 29.94 in 10.0 mi South 8.1 mph - N/A   Partly Cloudy
3:53 AM 75.0 °F - 71.1 °F 87% 29.91 in 10.0 mi South 6.9 mph - N/A   Clear
4:53 AM 73.0 °F - 70.0 °F 90% 29.92 in 10.0 mi South 3.5 mph - N/A   Clear
5:53 AM 73.0 °F - 70.0 °F 90% 29.94 in 8.0 mi SE 3.5 mph - N/A   Scattered Clouds
6:03 AM 73.4 °F - 69.8 °F 88% 29.97 in 8.0 mi SSE 5.8 mph - N/A   Mostly Cloudy
6:12 AM 73.4 °F - 69.8 °F 88% 29.97 in 7.0 mi SE 4.6 mph - N/A   Mostly Cloudy
6:23 AM 73.4 °F - 69.8 °F 88% 29.97 in 8.0 mi ESE 3.5 mph - N/A   Scattered Clouds
6:53 AM 73.0 °F - 70.0 °F 90% 29.94 in 8.0 mi SE 9.2 mph - N/A   Clear
7:17 AM 73.4 °F - 71.6 °F 94% 29.96 in 8.0 mi SSE 6.9 mph - N/A   Partly Cloudy
7:53 AM 75.9 °F - 71.1 °F 85% 29.94 in 10.0 mi SSE 11.5 mph - N/A   Mostly Cloudy
8:20 AM 77.0 °F - 71.6 °F 83% 29.96 in 10.0 mi South 9.2 mph - N/A   Mostly Cloudy
8:53 AM 79.0 °F - 71.1 °F 77% 29.95 in 10.0 mi SSW 9.2 mph - N/A   Mostly Cloudy
9:06 AM 80.6 °F 83.9 °F 69.8 °F 70% 29.97 in 10.0 mi South 9.2 mph - N/A   Scattered Clouds
9:53 AM 82.0 °F 85.5 °F 69.1 °F 65% 29.94 in 10.0 mi South 11.5 mph - N/A   Clear
10:53 AM 84.0 °F 87.0 °F 68.0 °F 58% 29.93 in 10.0 mi South 12.7 mph - N/A   Clear
11:53 AM 87.1 °F 90.6 °F 68.0 °F 53% 29.93 in 10.0 mi SSE 13.8 mph 19.6 mph N/A   Scattered Clouds
12:53 PM 88.0 °F 91.4 °F 68.0 °F 51% 29.91 in 10.0 mi SSW 9.2 mph - N/A   Partly Cloudy
1:53 PM 88.0 °F 91.4 °F 68.0 °F 51% 29.90 in 10.0 mi South 9.2 mph - N/A   Mostly Cloudy
2:53 PM 88.0 °F 90.7 °F 66.9 °F 49% 29.88 in 10.0 mi South 10.4 mph - N/A   Mostly Cloudy
3:53 PM 89.1 °F 92.9 °F 68.0 °F 50% 29.85 in 10.0 mi South 10.4 mph - N/A   Mostly Cloudy
4:53 PM 89.1 °F 92.9 °F 68.0 °F 50% 29.79 in 10.0 mi SSE 15.0 mph 23.0 mph N/A   Partly Cloudy
5:53 PM 87.1 °F 89.2 °F 66.0 °F 49% 29.78 in 10.0 mi South 13.8 mph 23.0 mph N/A   Clear
6:53 PM 86.0 °F 87.6 °F 64.9 °F 49% 29.78 in 10.0 mi SSE 13.8 mph 19.6 mph N/A   Clear
7:53 PM 82.9 °F 85.0 °F 66.0 °F 56% 29.80 in 10.0 mi SSE 8.1 mph - N/A   Scattered Clouds
8:53 PM 82.0 °F 84.5 °F 66.9 °F 60% 29.83 in 10.0 mi South 10.4 mph - N/A   Mostly Cloudy
9:53 PM 80.1 °F 82.7 °F 68.0 °F 67% 29.85 in 10.0 mi South 12.7 mph - N/A   Scattered Clouds
10:31 PM 78.8 °F - 69.8 °F 74% 29.90 in 10.0 mi South 9.2 mph - N/A Thunderstorm Mostly Cloudy
10:53 PM 80.1 °F 83.2 °F 70.0 °F 71% 29.90 in 10.0 mi SSW 9.2 mph - N/A Thunderstorm Thunderstorm
11:48 PM 78.8 °F - 71.6 °F 78% 29.95 in 10.0 mi WSW 5.8 mph - N/A   Mostly Cloudy
11:53 PM 75.9 °F - 69.1 °F 79% 29.95 in 10.0 mi NNW 18.4 mph 26.5 mph N/A   Mostly Cloudy